EW6086 Weather Reports


Display with metric or nautical units.
time (UTC)temp
F
wind
direction
speed
MPH
gust
MPH
rain 1hr
in
rain 24hr
in
rain mn
in
humidity
%
barometer
mb
20260506123806 78 90 0.0 0.0 0.00 6.31 0.03 90 1007.7
20260506123308 78 90 0.0 0.0 0.00 6.31 0.03 90 1007.7
20260506122807 78 90 0.0 0.0 0.00 6.31 0.03 90 1007.7
20260506122308 77 90 0.0 0.0 0.00 6.31 0.03 90 1007.7
20260506121805 77 90 0.0 0.0 0.00 6.31 0.03 90 1007.6
20260506121538 77 90 0.0 0.0 0.00 6.31 0.03 90 1007.6
20260506121044 77 90 0.0 0.0 0.00 6.31 0.03 90 1007.6
20260506120254 77 90 0.0 0.0 0.00 6.31 0.03 90 1007.5
20260506115749 77 90 0.0 0.0 0.00 6.31 0.03 90 1007.5
20260506114736 77 90 0.0 0.0 0.00 6.31 0.03 89 1007.4
20260506114501 77 90 0.0 0.0 0.00 6.31 0.03 89 1007.3
20260506113724 77 90 0.0 0.0 0.00 6.31 0.03 89 1007.3
20260506113218 77 90 0.0 0.0 0.00 6.31 0.03 89 1007.3
20260506112712 77 90 0.0 0.0 0.00 6.31 0.03 89 1007.3
20260506112207 77 90 0.0 0.0 0.00 6.31 0.03 89 1007.3
20260506111700 77 90 0.0 0.0 0.00 6.31 0.03 89 1007.3
20260506111154 78 90 0.0 0.0 0.00 6.31 0.03 89 1007.3
20260506110648 78 90 0.0 0.0 0.00 6.31 0.03 89 1007.3
20260506110145 78 90 0.0 0.0 0.00 6.31 0.03 89 1007.4
20260506105636 77 90 0.0 0.0 0.00 6.31 0.03 89 1007.4
20260506105130 78 90 0.0 0.0 0.00 6.31 0.03 89 1007.5
20260506104624 78 90 0.0 0.0 0.00 6.31 0.03 89 1007.5
20260506104118 78 90 0.0 0.0 0.00 6.31 0.03 89 1007.3
20260506103613 77 90 0.0 0.0 0.00 6.31 0.03 89 1007.3
20260506103106 78 90 0.0 0.0 0.00 6.31 0.03 89 1007.3
20260506102831 77 90 0.0 0.0 0.00 6.31 0.03 89 1007.3
20260506102055 77 90 0.0 0.0 0.00 6.31 0.03 89 1007.4
20260506101549 77 90 0.0 0.0 0.00 6.31 0.03 89 1007.4
20260506101042 77 90 0.0 0.0 0.00 6.31 0.03 89 1007.3
20260506100809 77 90 0.0 0.0 0.00 6.31 0.03 89 1007.2
20260506100032 77 90 0.0 0.0 0.00 6.31 0.03 89 1007.1
20260506095524 77 90 0.0 0.0 0.00 6.31 0.03 89 1007.0
20260506095018 77 90 0.0 0.0 0.00 6.31 0.03 89 1007.0
20260506094513 77 90 0.0 0.0 0.00 6.31 0.03 89 1007.1
20260506094007 77 90 0.0 0.0 0.00 6.31 0.03 89 1007.1
20260506093500 77 90 0.0 0.0 0.00 6.31 0.03 89 1007.0
20260506092955 77 90 0.0 0.0 0.00 6.31 0.03 89 1007.0
20260506092449 77 90 0.0 0.0 0.00 6.31 0.03 89 1007.0
20260506092214 77 90 0.0 0.0 0.00 6.31 0.03 89 1006.9
20260506091436 77 90 0.0 0.0 0.00 6.31 0.03 89 1007.0
20260506090931 77 90 0.0 0.0 0.00 6.31 0.03 89 1007.0
20260506090425 77 90 0.0 0.0 0.00 6.31 0.03 89 1006.9
20260506085918 77 90 0.0 0.0 0.00 6.31 0.03 89 1007.0
20260506085413 77 90 0.0 0.0 0.00 6.31 0.03 89 1007.1
20260506084907 77 90 0.0 0.0 0.00 6.31 0.03 89 1007.0
20260506084401 77 90 0.0 0.0 0.00 6.31 0.03 89 1006.9
20260506083349 77 90 0.0 0.0 0.00 6.31 0.03 89 1007.0
20260506082842 77 90 0.0 0.0 0.00 6.31 0.03 89 1007.1
20260506082336 77 90 0.0 0.0 0.00 6.31 0.03 89 1007.1
20260506081831 77 90 0.0 0.0 0.00 6.31 0.03 89 1007.0
20260506081324 77 90 0.0 0.0 0.00 6.31 0.03 89 1007.0
20260506080818 77 90 0.0 0.0 0.00 6.31 0.03 89 1007.1
20260506080312 77 90 0.0 0.0 0.00 6.31 0.03 89 1007.3
20260506073237 78 90 0.0 0.0 0.00 6.31 0.03 88 1007.5
20260506072730 78 90 0.0 0.0 0.00 6.31 0.03 88 1007.6
20260506072224 78 90 0.0 0.0 0.00 6.31 0.03 88 1007.6
20260506071719 78 90 0.0 0.0 0.01 6.31 0.03 88 1007.7
20260506071213 78 90 0.0 0.0 0.01 6.31 0.03 88 1008.0
20260506070943 78 90 0.0 0.0 0.01 6.31 0.03 88 1008.0
20260506070209 78 90 0.0 0.0 0.01 6.31 0.03 88 1008.0
20260506062208 78 90 0.0 0.0 0.02 6.31 0.03 88 1008.2
20260506061707 78 90 0.0 0.0 0.01 6.30 0.02 88 1008.2
20260506061208 78 90 0.0 0.0 0.01 6.30 0.02 88 1008.2
20260506060708 78 90 0.0 0.0 0.01 6.30 0.02 88 1008.2
20260506060208 78 90 0.0 0.0 0.01 6.30 0.02 88 1008.2
20260506051220 78 90 0.0 0.0 0.15 6.29 0.01 87 1007.9
20260506050708 78 90 0.0 0.0 0.15 6.29 0.01 88 1007.9
20260506050209 78 90 0.0 0.0 0.18 6.29 0.01 88 1007.9
20260506044437 78 90 0.0 0.0 0.48 6.25 6.63 88 1007.8
20260506043937 78 90 0.0 0.0 0.49 6.24 6.63 87 1007.8
20260506043205 78 90 0.0 0.0 0.46 6.19 6.57 88 1007.7
20260506042704 78 90 0.0 0.0 0.47 6.19 6.57 88 1007.7
20260506042204 78 90 0.0 0.0 0.45 6.17 6.56 87 1007.8
20260506041704 78 90 0.0 0.0 0.48 6.16 6.54 87 1007.7
20260506041206 78 90 0.0 0.0 0.50 6.14 6.52 87 1007.8
20260506040706 78 90 0.0 0.0 0.50 6.14 6.52 87 1007.8
20260506040205 78 90 0.0 0.0 0.47 6.11 6.49 87 1007.9
20260506035705 78 90 0.0 0.0 0.41 6.02 6.42 87 1007.8
20260506035203 78 90 0.0 0.0 0.32 5.90 6.29 87 1007.7
20260506034933 78 90 0.0 0.0 0.24 5.82 6.22 87 1007.7
20260506034200 78 90 0.0 0.0 0.21 5.77 6.15 87 1007.7
20260506033658 78 90 0.0 0.0 0.21 5.75 6.14 87 1007.7
20260506033158 78 90 0.0 0.0 0.21 5.73 6.12 87 1007.7
20260506032924 78 90 0.0 0.0 0.22 5.72 6.10 87 1007.6
20260506032147 78 90 0.0 0.0 0.26 5.72 6.10 87 1007.5
20260506031911 78 90 0.0 0.0 0.21 5.67 6.06 87 1007.5
20260506031134 78 90 0.0 0.0 0.19 5.64 6.02 87 1007.5
20260506030629 78 90 0.0 0.0 0.23 5.64 6.02 88 1007.4
20260506030123 78 90 0.0 0.0 0.27 5.64 6.02 88 1007.3
20260506025617 78 90 0.0 0.0 0.27 5.61 5.99 88 1007.2
20260506025110 78 90 0.0 0.0 0.28 5.58 5.96 88 1007.2
20260506024604 78 90 0.0 0.0 0.36 5.58 5.96 88 1007.1
20260506024058 78 90 0.0 0.0 0.41 5.56 5.94 88 1007.0
20260506023552 78 90 0.0 0.0 0.42 5.54 5.92 88 1006.9
20260506023046 78 90 0.0 0.0 0.41 5.52 5.90 88 1007.0
20260506022541 78 90 0.0 0.0 0.40 5.49 5.88 88 1006.9
20260506022036 78 90 0.0 0.0 0.39 5.46 5.84 88 1006.8
20260506021542 78 90 0.0 0.0 0.41 5.46 5.84 88 1006.9
20260506021023 78 90 0.0 0.0 0.41 5.45 5.83 88 1006.7
20260506020516 78 90 0.0 0.0 0.42 5.41 5.79 88 1006.6
20260506020239 78 90 0.0 0.0 0.48 5.37 5.75 88 1006.5
20260506015502 78 90 0.0 0.0 0.45 5.31 5.69 87 1006.5
20260506014957 78 90 0.0 0.0 0.46 5.29 5.67 87 1006.5
20260506014721 78 90 0.0 0.0 0.45 5.18 5.60 87 1006.5
20260506013945 78 90 0.0 0.0 0.48 5.15 5.53 87 1006.5
20260506013439 78 90 0.0 0.0 0.53 5.12 5.50 87 1006.4
20260506012933 78 90 0.0 0.0 0.69 5.11 5.49 87 1006.3
20260506012427 78 90 0.0 0.0 0.77 5.08 5.47 87 1006.2
20260506011921 78 90 0.0 0.0 0.86 5.05 5.43 87 1006.2
20260506011414 78 90 0.0 0.0 0.97 5.05 5.43 87 1006.2
20260506010908 78 90 0.0 0.0 0.93 5.01 5.39 87 1006.1
20260506010415 78 90 0.0 0.0 0.93 4.98 5.36 87 1006.0
20260506005857 78 90 0.0 0.0 0.94 4.89 5.27 87 1005.8
20260506005350 78 90 0.0 0.0 0.93 4.84 5.22 86 1005.9
20260506005117 78 90 0.0 0.0 0.98 4.80 5.18 86 1005.6
20260506004338 78 90 0.0 0.0 0.92 4.73 5.11 86 1005.6
20260506003833 78 90 0.0 0.0 0.82 4.60 5.04 86 1005.7
20260506003326 78 90 0.0 0.0 0.79 4.55 4.93 86 1005.7
20260506002820 79 90 0.0 0.0 0.67 4.42 4.80 86 1005.6
20260506002545 79 90 0.0 0.0 0.56 4.29 4.67 86 1005.6
20260506001302 79 90 0.0 0.0 0.45 4.08 4.46 86 1005.6
20260506001027 79 90 0.0 0.0 0.48 4.05 4.43 86 1005.7
20260506000251 79 90 0.0 0.0 0.52 4.05 4.43 86 1005.7
20260505235744 79 90 0.0 0.0 0.45 3.94 4.33 86 1005.7
20260505235510 80 90 0.0 0.0 0.42 3.90 4.29 85 1005.6
20260505234732 80 90 0.0 0.0 0.36 3.82 4.20 85 1005.7
20260505234457 80 90 0.0 0.0 0.36 3.80 4.18 85 1005.7
20260505233720 80 90 0.0 0.0 0.37 3.78 4.16 85 1005.8
20260505233215 80 90 0.0 0.0 0.41 3.76 4.14 85 1005.8
20260505232708 80 90 0.0 0.0 0.40 3.75 4.13 85 1005.9
20260505232202 80 90 0.0 0.0 0.42 3.73 4.11 85 1005.8
20260505231656 80 90 0.0 0.0 0.34 3.64 4.02 85 1005.8
20260505231150 80 90 0.0 0.0 0.47 3.63 4.01 85 1005.8
20260505230644 81 90 0.0 0.0 0.50 3.57 3.95 85 1005.8
20260505230410 81 90 0.0 0.0 0.47 3.52 3.91 85 1006.0
20260505225126 81 90 0.0 0.0 0.53 3.48 3.86 84 1005.9
20260505224621 81 90 0.0 0.0 0.58 3.46 3.84 84 1005.9
20260505224114 81 90 0.0 0.0 0.60 3.42 3.80 84 1006.0
20260505223608 82 90 0.0 0.0 0.65 3.37 3.75 84 1006.0
20260505223102 82 90 0.0 0.0 0.65 3.35 3.73 84 1006.0
20260505222557 82 90 0.0 0.0 0.68 3.35 3.73 84 1006.1
20260505222051 82 90 0.0 0.0 0.64 3.31 3.69 84 1006.2
20260505221550 82 90 0.0 0.0 0.63 3.28 3.68 84 1006.2
20260505221047 82 90 0.0 0.0 0.53 3.15 3.54 84 1006.2
20260505220547 82 90 0.0 0.0 0.52 3.07 3.45 84 1006.2
20260505220331 82 90 0.0 0.0 0.52 3.04 3.42 84 1006.3
20260505215546 81 90 0.0 0.0 0.54 2.98 3.37 84 1006.4
20260505215043 81 90 0.0 0.0 0.55 2.93 3.31 84 1006.4
20260505214542 81 90 0.0 0.0 0.52 2.85 3.26 84 1006.5
20260505214042 82 90 0.0 0.0 0.69 2.82 3.21 84 1006.6
20260505213542 82 90 0.0 0.0 0.63 2.72 3.10 84 1006.7
20260505213040 82 90 0.0 0.0 0.69 2.70 3.08 84 1006.7
20260505212539 82 90 0.0 0.0 0.74 2.67 3.06 84 1006.8
20260505212036 82 90 0.0 0.0 0.82 2.67 3.05 84 1006.8
20260505211535 82 90 0.0 0.0 0.85 2.65 3.03 84 1006.8
20260505211033 82 90 0.0 0.0 0.86 2.61 3.00 84 1006.8
20260505210804 82 90 0.0 0.0 0.83 2.55 2.93 84 1006.9
20260505210303 82 90 0.0 0.0 0.87 2.52 2.90 83 1006.9
20260505205532 83 90 0.0 0.0 0.93 2.44 2.82 83 1006.9
20260505205029 83 90 0.0 0.0 1.00 2.38 2.77 83 1007.0
20260505204804 83 90 0.0 0.0 1.01 2.33 2.72 83 1007.0
20260505204029 82 90 0.0 0.0 0.81 2.13 2.51 84 1007.1
20260505203528 82 90 0.0 0.0 0.80 2.09 2.47 84 1007.1
20260505203029 82 90 0.0 0.0 0.73 2.01 2.39 84 1007.3
20260505202757 82 90 0.0 0.0 0.65 1.93 2.32 84 1007.3
20260505202023 82 90 0.0 0.0 0.59 1.85 2.23 84 1007.4
20260505201755 82 90 0.0 0.0 0.54 1.80 2.19 84 1007.4
20260505201256 82 90 0.0 0.0 0.51 1.75 2.13 84 1007.4
20260505200523 81 90 0.0 0.0 0.49 1.72 2.10 84 1007.5
20260505200021 81 90 0.0 0.0 0.40 1.63 2.01 84 1007.6
20260505195521 81 90 0.0 0.0 0.32 1.51 1.89 84 1007.6
20260505195021 81 90 0.0 0.0 0.22 1.38 1.77 84 1007.6
20260505194523 81 90 0.0 0.0 0.28 1.32 1.70 84 1007.7
20260505194021 81 90 0.0 0.0 0.37 1.32 1.70 84 1007.7
20260505193522 81 90 0.0 0.0 0.36 1.29 1.67 84 1007.8
20260505193021 81 90 0.0 0.0 0.38 1.28 1.66 84 1007.9
20260505192522 81 90 0.0 0.0 0.41 1.28 1.66 84 1007.9
20260505192021 81 90 0.0 0.0 0.45 1.26 1.64 84 1007.9
20260505191522 81 90 0.0 0.0 0.51 1.26 1.64 84 1008.0
20260505191021 81 90 0.0 0.0 0.51 1.24 1.62 84 1008.0
20260505190521 81 90 0.0 0.0 0.51 1.23 1.61 84 1008.0
20260505190021 81 90 0.0 0.0 0.55 1.23 1.61 84 1008.1
20260505185519 81 90 0.0 0.0 0.53 1.19 1.59 84 1008.1
20260505185020 82 90 0.0 0.0 0.52 1.16 1.54 84 1008.0
20260505184517 82 90 0.0 0.0 0.42 1.04 1.49 84 1008.0
20260505184017 82 90 0.0 0.0 0.40 0.95 1.33 84 1008.0
20260505183515 82 90 0.0 0.0 0.43 0.93 1.31 84 1008.1
20260505183246 82 90 0.0 0.0 0.46 0.90 1.28 83 1008.1
20260505182513 82 90 0.0 0.0 0.49 0.87 1.25 83 1008.2
20260505182013 82 90 0.0 0.0 0.47 0.81 1.19 83 1008.1
20260505181507 82 90 0.0 0.0 0.45 0.75 1.13 83 1008.1
20260505181001 83 90 0.0 0.0 0.46 0.73 1.11 82 1008.2
20260505180456 83 90 0.0 0.0 0.46 0.72 1.10 82 1008.2
20260505180222 83 90 0.0 0.0 0.49 0.68 1.06 82 1008.2
20260505175714 83 90 0.0 0.0 0.49 0.66 1.04 82 1008.3
20260505174432 82 90 0.0 0.0 0.47 0.61 1.00 83 1008.3
20260505173925 82 90 0.0 0.0 0.45 0.54 0.92 83 1008.4
20260505173420 82 90 0.0 0.0 0.45 0.50 0.88 83 1008.5
20260505172919 82 90 0.0 0.0 0.40 0.44 0.82 84 1008.5
20260505172408 81 90 0.0 0.0 0.34 0.38 0.76 84 1008.6
20260505171901 81 90 0.0 0.0 0.31 0.34 0.72 84 1008.6
20260505171356 81 90 0.0 0.0 0.27 0.28 0.66 84 1008.6
20260505170854 81 90 0.0 0.0 0.27 0.27 0.65 84 1008.6
20260505170344 81 90 0.0 0.0 0.25 0.25 0.64 84 1008.7
20260505165837 80 90 0.0 0.0 0.19 0.19 0.57 84 1008.8
20260505165332 81 90 0.0 0.0 0.17 0.17 0.55 84 1008.8
20260505165058 81 90 0.0 0.0 0.15 0.15 0.54 84 1008.8
20260505164550 81 90 0.0 0.0 0.13 0.13 0.52 84 1008.7
20260505163813 81 90 0.0 0.0 0.09 0.09 0.47 84 1008.6
20260505163307 81 90 0.0 0.0 0.05 0.05 0.43 84 1008.6
20260505163032 81 90 0.0 0.0 0.04 0.04 0.42 84 1008.6
20260505162256 81 90 0.0 0.0 0.04 0.04 0.42 84 1008.6
20260505161751 81 90 0.0 0.0 0.03 0.03 0.41 84 1008.6
20260505161249 81 90 0.0 0.0 0.01 0.01 0.39 84 1008.6
20260505160750 81 90 0.0 0.0 0.00 0.00 0.38 83 1008.6
20260505160251 81 90 0.0 0.0 0.00 0.00 0.37 83 1008.6
20260505152707 80 90 0.0 0.0 0.14 1.01 0.28 84 1008.5
20260505152217 80 90 0.0 0.0 0.12 1.01 0.26 84 1008.5
20260505151704 80 90 0.0 0.0 0.09 1.01 0.23 84 1008.5
20260505151204 80 90 0.0 0.0 0.09 1.01 0.22 84 1008.5
20260505150702 79 90 0.0 0.0 0.09 1.01 0.22 84 1008.4
20260505150200 79 90 0.0 0.0 0.12 1.01 0.22 84 1008.5
20260505140610 78 90 0.0 0.0 0.05 1.00 0.13 85 1008.4
20260505140105 78 90 0.0 0.0 0.03 1.00 0.10 85 1008.4
20260505124940 77 90 0.0 0.0 0.01 9.98 0.07 86 1007.9
20260505124433 76 90 0.0 0.0 0.01 9.98 0.07 87 1007.8
20260505123927 76 90 0.0 0.0 0.01 9.98 0.07 87 1007.8